Filtrer par Nom Sexe Groupe d'age
Picarde Baie de Somme GranFondo 2002
RG. DOS. TEMPS CAT RG. POINTS
1 65 SPEYBROUCK FILIP 05:14:44:000 C 1 80.00 BRUGGE, BELGIQUE
2 43 GIORGALLA SERGE 05:14:45:400 E 1 80.00 paris, France
3 30 LEUCKX MARC 05:15:38:000 D 1 79.94 LENNIK, BELGIQUE
4 7 JASSERAND BRUNO 05:15:50:000 D 2 79.93 LA MOTTE, FRANCE
5 66 PAINTER RUSSELL 05:15:52:000 D 3 79.92 ANERLEY, Royaume-uni
6 52 PASTOR JOSE LUIS 05:15:53:000 C 2 79.92 TRAVAILLAN, FRANCE
7 181 SERRET LUDOVIC 05:16:14:000 D 4 79.90 VILLENEUVE LES MAGUELONE, FRANCE
8 443 RIGAUX JEAN-JACQUES 05:16:15:200 D 5 79.90 AVESNES LES AUBERT, FRANCE
9 164 HINCHCLIFFE ROBERT 05:16:18:000 D 6 79.89 NOTTINGHAM, Royaume-Uni
10 169 FOURNIER JEAN FRANCOIS 05:16:24:000 D 7 79.89 GARCHES, FRANCE
12 61 GEHIN MIKAEL 05:18:46:000 C 3 79.73 FESSENHEIM LE BAS, FRANCE
13 149 HUBERT NICOLAS 05:18:47:000 C 4 79.73 BARENTIN, FRANCE
14 2297 DAREAU PHILIPPE 05:18:47:200 E 3 79.73 MONTATAIRE, FRANCE
15 490 MORAND JOSEPH 05:18:48:000 F 1 79.72 VITRE, FRANCE
16 171 JADOT JEAN 05:18:48:600 E 4 79.72 BRUXELLES, BELGIQUE
17 161 SANNIER ALBERT 05:18:50:000 E 5 79.72 PIERREVERT, FRANCE
18 245 ODILE PATRICK 05:18:57:000 E 6 79.71 REIMS, FRANCE
19 123 DODDS ALAN 05:20:02:000 F 2 79.64 REIMS, FRANCE
20 447 LE MASLE THIERRY 05:20:15:000 D 8 79.63 VILLEPREUX, FRANCE
21 235 PORET DIMITRI 05:20:33:000 C 5 79.61 PARVILLERS LE QUESNOY, FRANCE
22 318 ORR JIM 05:21:03:300 F 3 79.57 ALDERSHOT, Royaume-Uni
23 451 CHARLEY FREDERIQUE 05:21:35:000 D 9 79.54 SAINT MAULVIS, FRANCE
24 111 PATUEL IAN 05:21:36:000 D 10 79.53 BEVILLE LE COMTE, France
25 53 LEGROS ALAIN 05:21:42:000 E 7 79.53 SERAING, BELGIQUE
26 153 MATHIS ERIC 05:23:22:000 D 11 79.41 CORMEILLE EN PARISIS, FRANCE
27 320 FIRMIN THIERRY 05:23:24:000 D 12 79.41 CLAYE SOUILLY, FRANCE
28 402 BARTON JAMES 05:23:34:000 G 1 79.40 CARLISLE, Royaume-Uni
29 565 PRUD HOMME RICHARD 05:25:19:000 E 8 79.28 ANSACQ, FRANCE
30 129 DUCROCQ STEPHANE 05:25:20:000 D 13 79.28 DUNKERQUE, FRANCE
31 126 MASSAUD RICHARD 05:26:48:000 D 14 79.18 VILLEJUIF, FRANCE
32 294 VAN LANDSCHOOT BART 05:27:21:000 D 15 79.14 MARIAKERKE(GAND), BELGIQUE
33 406 RENWART MICHEL 05:28:33:000 E 9 79.06 , FRANCE
34 5020 PROVO FRANCIS 05:28:46:000 E 10 79.05 ROQUEBRUNE SUR ARGENS, FRANCE
35 10 SCHWAB PATRICK 05:28:49:000 F 4 79.05 ST BAUZILLE DE MONTMEL, FRANCE
36 597 CRAPOULET SAMUEL 05:28:58:000 C 6 79.04 VALMONDOIS, FRANCE
37 409 MARTIN PATRICK 05:29:39:000 D 16 78.99 MEUDON LA FORET, FRANCE
38 28 WIETKIN ARTHUR 05:29:40:000 F 5 78.99 NASSOGNE, BELGIQUE
39 115 SAMRAY FRANCIS 05:29:42:000 E 11 78.99 LIERNEUX, BELGIQUE
40 538 LANDO PHILIPPE 05:29:57:000 E 12 78.97 DURY, FRANCE
41 582 CARLIER FABRICE 05:29:57:000 D 17 78.97 HALLENCOURT, FRANCE
42 532 VRINDTS LOUIS 05:29:57:800 E 13 78.97 HULSHOUT, BELGIQUE
43 75 FOULOUNOUX THIERRY 05:29:58:000 E 14 78.97 PARIS, FRANCE
44 11 NEIRYNCK PATRICK 05:29:58:500 D 18 78.97 STEKENE, BELGIQUE
45 523 AUDOYE OLIVIER 05:29:59:000 D 19 78.97 AUXERRE, FRANCE
46 570 WAROT COME 05:29:59:000 D 20 78.97 EPERLECQUES, FRANCE
47 139 BELLET JACQUES 05:30:00:000 E 15 78.97 Fayence, France
48 431 DE POTTER GINO 05:30:00:000 D 21 78.97 ZINGEM, BELGIQUE
49 572 BARRE OLIVIER 05:30:00:600 E 16 78.97 FONTAINE AU PIRE, FRANCE
50 537 SCHOLAERT STEPHANE 05:30:01:000 D 22 78.96 ARMENTIERES, FRANCE
51 147 TERRIE MARTIN 05:30:03:000 E 17 78.96 KORTRIJK, BELGIQUE
52 377 LEMMENS MAURITS 05:30:09:000 E 18 78.96 LIER, BELGIQUE
53 237 CARPENTIER FRANCIS 05:30:10:000 E 19 78.95 AYWAILLE, BELGIQUE
54 133 BRAY JULIAN 05:30:15:000 D 23 78.95 LONDRES, Royaume-Uni
55 192 MARIE THIERRY 05:30:16:600 D 24 78.95 MARTINVAST, France
56 228 BLUSSON FABRICE 05:30:37:000 D 25 78.92 ORMES, FRANCE
57 135 BEERNAERT DIRK 05:30:42:000 E 20 78.92 KUURNE, BELGIQUE
58 295 POPPE DIRK 05:30:42:000 D 26 78.92 ZELE, BELGIQUE
59 200 LAVACHE JEAN-PIERRE 05:30:42:300 D 27 78.92 ROBION, FRANCE
60 446 JACQUES EMMANUEL 05:30:42:800 D 28 78.92 LES CLAYES SOUS BOIS, France
61 156 LACOSTE JEAN-LUC 05:30:43:000 E 21 78.92 TAIN-L HERMITAGE, France
62 437 VAN OOSTENDE MARTIN 05:30:43:000 E 22 78.92 ZINGEM, BELGIQUE
63 486 MOHR RAYMOND 05:30:44:600 E 23 78.92 HOWALD, LUXEMBOURG
64 534 GOOUMANS CORNEEL 05:30:44:600 D 29 78.92 HEIST OP DEN BERG, BELGIQUE
65 241 HUBEAU MARC 05:30:45:000 D 30 78.91 DURBY (BOMAL), BELGIQUE
66 387 BOUCHARD DIDIER 05:30:46:000 E 24 78.91 AUBERVILLE LA CAMPAGNE, FRANCE
67 307 ADDISON COLIN 05:30:47:000 D 31 78.91 SURREY, Royaume-Uni
68 361 DUBROMER BRUNO 05:30:47:000 D 32 78.91 ORLEANS, FRANCE
69 137 HOCHART FREDERIC 05:30:47:400 E 25 78.91 SŠVRES, FRANCE
70 578 TRINEL REGIS 05:30:48:000 E 26 78.91 BETHUNE, France
71 334 JOHNSON CHRIS 05:30:49:000 D 33 78.91 BRADFORD, Royaume-Uni
72 347 MARTIN NEIL 05:30:56:000 E 27 78.90 TAMWORTH, Royaume-Uni
73 585 CAUCHY JEAN MICHEL 05:30:58:000 E 28 78.90 DOUAI, FRANCE
74 151 DUCROUX STEPHANE 05:31:00:000 E 29 78.90 VILLERS LES LUXEUIL, FRANCE
75 340 MASCALL DAVE 05:31:01:000 D 34 78.90 REDHILL SURREY, Royaume-Uni
76 354 MARCHAL LAURENT 05:31:03:600 D 35 78.89 SENLIS, FRANCE
77 279 FRANCOIS JEAN-JACQUES 05:31:15:000 E 30 78.88 CHAMBRY, FRANCE
78 299 FRERES JOSEPH 05:31:15:300 E 31 78.88 VIELSALM, BELGIQUE
79 177 REY PIERRE 05:31:16:800 G 2 78.88 CASTELCULIER, FRANCE
80 155 DELGRANGE ALAIN 05:31:17:000 E 32 78.88 DENAIN, FRANCE
81 282 LAMBOTTE JEAN JACQUES 05:31:17:800 F 6 78.88 TILFF, BELGIQUE
82 125 JORIS ALEX 05:31:19:000 E 33 78.88 MARCHE EN FAMENNE, BELGIQUE
83 417 LESUR PHILIPPE 05:31:19:600 E 34 78.88 CROIXRAULT, FRANCE
84 2 EQUOY-CLEMANN ISABELLE 05:31:20:200 B 1 78.87 ST PRIX, FRANCE
85 136 DEWEZ PIERRE 05:31:22:000 E 35 78.87 TROIS-PONTS, BELGIQUE
86 428 DI GLERIA OLIVIER 05:31:24:000 C 7 78.87 CHEVENOZ, FRANCE
87 503 SHEPPARD MICHAEL 05:31:27:000 D 36 78.87 STAFFS, Royaume-Uni
88 323 LEE IAN 05:31:28:200 E 36 78.87 LEEDS, Royaume-Uni
89 302 REMY ETIENNE 05:31:29:000 D 37 78.86 LIERNEUX, BELGIQUE
90 421 GENIN CYRIL 05:31:29:000 D 38 78.86 ST AUBIN EN BRAY, FRANCE
91 561 MARTIN PAUL 05:31:29:000 E 37 78.86 BRENTWOOD ESSEX, Royaume-Uni
92 9 PIRONT J.PIERRE 05:31:30:200 E 38 78.86 LOUVEIGNE, BELGIQUE
93 355 REMNANT CHRISTOPHER 05:31:30:900 E 39 78.86 BIZE-MINERVOIS, FRANCE
94 121 VILLETTE HERVE 05:31:34:000 E 40 78.86 LA GARENNE COLOMBES, FRANCE
95 528 WIJNENS GISLAIN 05:31:36:000 F 7 78.86 HEIST OD BERG, BELGIQUE
96 356 STANESCO JOEL 05:31:38:600 F 8 78.85 AUCALEUC, France
98 278 MARTINET BENOIT 05:32:04:000 D 39 78.83 CHAMBRY, FRANCE
99 335 SEGARRT RUDI 05:32:21:000 D 40 78.81 DEINZE, BELGIQUE
100 50 DICKHOUT JAN 05:32:24:000 F 10 78.80 EINDHOVEN, Pays-Bas
101 93 BARENGHIEN FREDERIC 05:32:27:000 D 41 78.80 PHALEMPIN, FRANCE
102 522 DUBOIS BERNARD 05:32:36:000 D 42 78.79 RADINGHEM EN WEPPES, FRANCE
103 353 BLANQUET MARCEL 05:32:38:000 E 41 78.79 PLEINE SEVE, FRANCE
104 579 PAGET EMMANUEL 05:32:39:800 D 43 78.79 VEULES LES ROSES, FRANCE
105 566 CHAPELLE LUDOVIC 05:32:40:000 D 44 78.78 FECAMP, FRANCE
106 78 COLLIN JEAN 05:33:29:000 F 11 78.73 LILLE, FRANCE
107 157 VASSEUR LAURENT 05:33:39:000 D 45 78.72 MILLY SUR THERAIN, FRANCE
108 524 COLAS FABRICE 05:34:21:000 D 46 78.67 AUXERRE, FRANCE
109 104 GUILLAUME ALEXANDRE 05:35:45:000 D 47 78.58 FRANCONVILLE, FRANCE
110 211 FAURY EMMANUEL 05:35:45:000 A 1 78.58 ERONDELLE, FRANCE
111 530 KOLENBERG GUIDO 05:36:00:000 F 12 78.56 BOOISCHOT, BELGIQUE
112 158 PEGUIN BERNARD 05:36:01:500 F 13 78.56 COUPVRAY, FRANCE
113 535 VAN ROMPAEY LOUIS 05:36:02:900 F 14 78.56 BERLAAR, BELGIQUE
114 531 VERSCHUEREN WILLY 05:36:04:500 F 15 78.55 HALLAAR, BELGIQUE
115 419 BARNSLEY STEPHEN 05:36:16:000 E 42 78.54 CHELMSFORD, Royaume-Uni
116 408 LE DISSEZ CHRISTOPHE 05:37:51:000 D 48 78.43 MARCOUSSIS, FRANCE
117 459 DUHAUPAS GUY 05:37:52:000 F 16 78.43 ABBEVILLE, FRANCE
118 15 CHOCAT ETIENNE 05:37:53:300 D 49 78.43 PARIS, FRANCE
119 166 NISIN CHRISTOPHE 05:37:54:900 D 50 78.43 MONTMAGNY, FRANCE
120 322 HAERDEN JEAN PIERRE 05:37:55:000 E 43 78.43 AMAY, BELGIQUE
121 568 SORIN PATRICK 05:37:56:000 F 17 78.43 VANVES, FRANCE
122 574 MIRY ROLAND 05:37:57:000 F 18 78.43 BAILLET, FRANCE
123 146 VERCRUYSSE GEERT 05:39:01:000 F 19 78.35 GULLEGEM, BELGIQUE
124 268 STEENKISTE OLIVIER 05:39:02:000 D 51 78.35 TOURCOING, FRANCE
125 328 NICOD GERARD 05:39:02:100 F 20 78.35 MONTAIGU, FRANCE
126 452 CHARLEY FRANCIS 05:39:03:000 F 21 78.35 SAINT MAULVIS, FRANCE
127 210 FOURMONT ROBERT 05:39:03:300 F 22 78.35 FOUGERES, FRANCE
128 6 WANTZ JEAN-CHARLES 05:39:03:900 F 23 78.35 KERGLOFF, FRANCE
129 500 LAVIGNE RENE 05:39:04:600 F 24 78.35 FOUGERES, FRANCE
130 519 LAPORTE FABRICE 05:39:05:000 D 52 78.35 CAGNES, FRANCE
131 251 BRIOUL DOMINIQUE 05:39:05:800 E 44 78.35 HAZEBROUCK, France
132 410 BAUDOUIN ERIC 05:39:06:000 D 53 78.35 CHEVRY COSSIGNY, FRANCE
133 444 MAURICE MICHEL 05:39:06:000 E 45 78.35 ERAGNY SUR OISE, FRANCE
134 244 POTTY JEAN 05:39:07:000 F 25 78.35 SPRIMONT, BELGIQUE
135 485 FAELENS J.PIERRE 05:39:07:000 E 46 78.35 BEAUVAIS, FRANCE
136 238 CHARLIER ANDRE 05:39:08:300 F 26 78.35 LIEGE ANGLEUR, BELGIQUE
137 513 GRINFEDER ARNAUD 05:39:08:600 C 8 78.35 RIVERY, FRANCE
138 429 DELPIERRE CHRISTIAN 05:39:10:000 E 47 78.34 BOUQUEHAULT, France
139 540 LEBRUN PASCAL 05:39:10:000 E 48 78.34 SAINT RMY DU NORD, FRANCE
140 569 DEGRAVE JEAN RAYMOND 05:39:10:000 E 49 78.34 INGOUVILLE SUR MER, FRANCE
141 127 BOISSADIE JEAN 05:39:11:000 G 3 78.34 PUISEUX EN RETZ, FRANCE
142 319 DEWAR MALCOLM 05:39:12:100 F 27 78.34 GUILDFORD, Royaume-Uni
143 577 WANAT FABIEN 05:39:12:800 C 9 78.34 NOMAIN, FRANCE
144 533 TORFS LEON 05:39:14:000 F 28 78.34 SCHRICH, BELGIQUE
145 39 LAUNAY MICHEL 05:39:16:000 G 4 78.34 CHEVREUSE, FRANCE
146 193 MANCEAU DANIEL 05:39:18:400 E 50 78.33 FLEURIGNE, FRANCE
147 511 HOBE PATRICK 05:39:20:000 E 51 78.33 SERAING, BELGIQUE
148 576 BEMERS PATRICK 05:39:24:000 F 29 78.33 ST LEU LA FORET, FRANCE
149 460 MONIEZ JEAN 05:40:21:000 E 52 78.26 WANEL, FRANCE
150 483 DELODDERE MICHEL 05:40:25:000 F 30 78.26 MILLY SUR THERAIN, FRANCE
151 601 PAELINCK HUBERT 05:40:27:000 F 31 78.26 KALKEM, BELGIQUE
152 108 ROBSON TIM 05:40:59:000 D 54 78.22 OTLEY, Royaume-Uni
153 51 VAN HOOF ROBERT 05:41:08:000 F 32 78.21 TREMELO, BELGIQUE
154 549 HUBERT DIDIER 05:41:08:300 E 53 78.21 LANERSINES, FRANCE
155 298 GRESSIER JACKY 05:41:11:000 D 55 78.21 SAINS-RICHAUMONT, FRANCE
156 20 AUGER PASCAL 05:42:16:000 E 54 78.13 ENGHIEN LES BAINS, FRANCE
157 292 CAUVIN PATRICE 05:43:32:000 E 55 78.05 ALBERT, FRANCE
158 33 FLEAR JOHN 05:43:47:000 G 5 78.03 LINCOLN, Royaume-uni
159 71 MIDDLETON KEITH 05:43:48:000 E 56 78.03 LINCOLN, Royaume-Uni
160 481 ASHTON TIM 05:43:48:900 E 57 78.03 LINCOLN, Royaume-Uni
161 49 ARENS JEAN CLAUDE 05:43:50:000 F 33 78.03 FROIDECONCHE, FRANCE
162 482 ENGLISH PETER 05:43:54:000 E 58 78.02 LINCOLN, Royaume-Uni
163 411 DESQUESNE CLAUDE 05:44:10:000 G 6 78.01 SEVRES, FRANCE
164 412 NESPOLO DANIEL 05:44:11:000 F 34 78.00 MEUDON LA FORET, FRANCE
165 287 OLDRIDGE JOHN 05:44:18:000 C 10 78.00 LEEDS, Royaume-Uni
166 506 EARLE MARTIN 05:45:03:000 D 56 77.95 LONDON, FRANCE
167 225 MARIE PASCAL 05:45:16:000 E 59 77.93 VILLIERS SUR MARNE, FRANCE
168 48 SIMONEAU ALAIN 05:46:07:000 F 35 77.87 VARENGEVILLE SUR MER, FRANCE
170 450 GUILLOCHON MICHEL 05:46:27:000 F 36 77.85 DRUCAT, FRANCE
171 145 DUCHI KRISTIAN 05:46:45:700 E 60 77.83 KUURNE, BELGIQUE
172 525 RAGGI ALEANDRO 05:46:59:000 E 61 77.81 SAINT DENIS, FRANCE
173 556 MORGAN IAN 05:47:06:000 C 11 77.81 BRENTWOOD, Royaume-Uni
174 222 COMPAIN CYNTHIA 05:47:30:000 A 2 77.78 ST MANDE, FRANCE
175 493 LESENFANTS LEON 05:47:49:000 F 37 77.76 LIERNEUX, BELGIQUE
176 293 SANNIER JEAN LOUIS 05:48:13:000 F 38 77.73 AUPPEGARD, FRANCE
177 327 PUTET ROLAND 05:48:13:000 F 39 77.73 LONS LE SAUNIER, FRANCE
178 38 PEETERS LEON ALFONS 05:48:14:000 G 7 77.73 VILVOORDE, BELGIQUE
179 313 BARCLAY DANNY 05:48:14:000 D 57 77.73 Letchworth, Hertfordshire, Royaume-Uni
180 521 BEYLIER ANDRE 05:48:15:000 G 8 77.73 EPPEVILLE, FRANCE
181 199 HENNUY ERIC 05:48:15:600 D 58 77.73 HAVAY, BELGIQUE
182 69 WITTS CHARLES JOHN 05:48:17:800 E 62 77.73 SURREY, France
183 388 SEGAULT FRANCK 05:48:19:000 D 59 77.72 LA BOISSIERE EN THELLE, FRANCE
184 389 THEBAULT DAVID 05:48:19:400 C 12 77.72 LARDIERES, FRANCE
185 349 COOK ROY 05:48:20:000 F 40 77.72 LEICESTERSHIRE, Royaume-Uni
186 539 DELAITRE PIERRE 05:49:12:000 F 41 77.66 WARLUIS, FRANCE
187 179 DURNEZ LIEVE 05:49:13:000 A 3 77.66 OOSTDUINKERKE, BELGIQUE
188 557 BENOIT JEAN NOEL 05:49:25:000 F 42 77.65 SAILLY, FRANCE
189 605 CHRISTIAEN PIERRE 05:49:55:000 D 60 77.62 DUNKERQUE, FRANCE
190 102 DEGAUDEZ ROBERT 05:50:20:000 E 63 77.59 WASQUEHAL, FRANCE
191 401 MOFFATT DAVID 05:50:55:000 E 64 77.55 WIGTON, Royaume-Uni
192 484 DEBOMY JEAN 05:51:03:000 E 65 77.54 MILLY SUR THERAIN, FRANCE
193 303 RAOULT FELIX 05:51:04:900 E 66 77.54 EVRY, FRANCE
194 58 LETARD CHRISTIAN 05:51:05:300 F 43 77.54 RUEIL MALMAISON, FRANCE
195 580 LETELIER JEAN CLAUDE 05:51:07:000 F 44 77.53 CHAMBLY, FRANCE
196 543 SCELLIER DENIS 05:51:07:800 E 67 77.53 FERRIERES EN BRAY, FRANCE
197 8 RASKIN MADELEINE 05:51:39:000 B 2 77.50 SPRIMONT, BELGIQUE
198 434 LIEBAULT STEPHANE 05:51:43:000 D 61 77.49 SAINT ETIENNE DU ROUVRAY, France
199 105 TAMPIGNY SYLVAIN 05:51:43:400 E 68 77.49 CAMON, FRANCE
200 305 BROOKS KEITH 05:51:47:000 F 45 77.49 SURREY, Royaume-Uni
201 214 TROY JACQUELINE 05:52:18:000 B 3 77.45 HENIN BEAUMONT, FRANCE
202 267 VIENNE DOMINIQUE 05:52:19:800 D 62 77.45 HALLUIN, FRANCE
203 515 TOURNAY THIERRY 05:52:20:000 D 63 77.45 LISCHERT, BELGIQUE
204 1 YGOUT FRANCIS 05:52:22:000 E 69 77.45 BARENTIN, FRANCE
205 216 BLANQUET OLIVIER 05:52:39:000 D 64 77.43 QUIERY LA MOTTE, FRANCE
206 253 BONVICINI MARC 05:52:42:000 E 70 77.43 ST QUENTIN, FRANCE
207 504 LOUESDON JEAN MICHEL 05:52:43:000 F 46 77.43 BERTEAUCOURT LES DAMES, FRANCE
208 573 HOSTACHY ETIENNE 05:54:11:000 E 71 77.33 ST ARNOULT, FRANCE
209 248 PEIFFER THIERRY 05:55:16:000 E 72 77.25 NEUVILLE ST AMAND, FRANCE
210 592 FOURCROY ALAIN 05:56:15:000 E 73 77.19 VIMY, FRANCE
211 422 DECQ JEAN RENE 05:57:06:000 E 74 77.13 LEERS, FRANCE
212 405 RENOTTE EMMANUEL 05:58:07:000 D 65 77.06 LIEGE, BELGIQUE
213 392 MASSART DIDIER 05:58:07:900 E 75 77.06 OUGREE, BELGIQUE
214 433 DAVID DIDIER 05:58:45:000 E 76 77.02 HAZEBROUCK, FRANCE
215 230 FREZIERES JEROME 05:59:02:000 D 66 77.00 MAISONS ALFORT, FRANCE
217 432 BAROT JEAN-LOUIS 05:59:11:800 E 77 76.99 BAISIEUX, FRANCE
218 41 GARNIER FRANCK 05:59:12:000 C 13 76.99 NICE, FRANCE
219 507 Hogendoorn Richard 05:59:12:400 D 67 76.99 Halsteren, Pays-Bas
220 178 COMPERNOLLE FREDDY 05:59:13:700 E 78 76.99 OOSTDUINKERKE, BELGIQUE
221 498 COURTIN FREDDY 05:59:32:000 G 9 76.96 CRIEL S/MER, FRANCE
222 132 RAVAGNI LIONEL 05:59:47:000 D 68 76.95 HOUILLES, FRANCE
223 207 SELECK GUY 06:00:17:000 E 79 76.91 LOUVEIGNE, BELGIQUE
224 488 GWIAZDOWSKI ANDRE 06:00:17:700 E 80 76.91 ST NICOLAS D'ALIERMONT, FRANCE
225 571 HUYGHE JAN 06:00:18:000 E 81 76.91 OOSTDUINKERKE, BELGIQUE
226 583 NOEL HERVE 06:00:18:500 F 47 76.91 STEENVOORDE, FRANCE
227 67 THOMAS JONATHAN 06:00:19:000 E 82 76.91 GUILDFORD, Royaume-Uni
228 516 DEMISSY PATRICK 06:00:19:700 E 83 76.91 TERGNIER, FRANCE
229 80 ORWIN JOHN 06:00:20:000 G 10 76.91 LONDRES, Royaume-Uni
230 457 LEMAITRE J.CLAUDE 06:00:22:300 F 48 76.91 CUCQ, FRANCE
231 588 LEACH PASCAL 06:00:23:000 D 69 76.91 LENS, FRANCE
232 109 ROGER MAURICE 06:00:24:200 G 11 76.90 COURS DE PILE, FRANCE
233 122 DEMARCHE LEOPOLD 06:00:25:000 G 12 76.90 BAILLONVILLE, BELGIQUE
234 495 GROEN BOB 06:00:26:000 F 49 76.90 GOUDA, Pays-bas
235 201 ETIENNE JEAN 06:00:27:000 F 50 76.90 AYWAILLE, BELGIQUE
236 359 RICHARDSON PETER 06:00:27:000 D 70 76.90 LONDON, Royaume-Uni
237 385 PATAULT PHILIPPE 06:00:27:700 G 13 76.90 LIMOURS, FRANCE
238 581 VANDAMME J.MICHEL 06:00:38:000 F 51 76.89 LONGUENESSE, FRANCE
239 247 RICKARD JULIAN 06:00:42:000 C 14 76.88 EWELL, Royaume-Uni
240 324 MONNEREAU CLAUDE 06:01:08:000 G 14 76.86 MORANGIS, FRANCE
241 517 MOUYSSET VINCENT 06:01:09:800 D 71 76.85 TERGNIER, FRANCE
242 21 CHOCHOY DANIEL 06:01:10:000 F 52 76.85 BRUNOY, FRANCE
243 445 ORINEL PASCAL 06:01:10:400 D 72 76.85 FONTENAY LE FLEURY, FRANCE
244 70 MARECHAL ALAIN 06:01:39:000 F 53 76.82 BEAUFAYS, BELGIQUE
245 254 DUFLOS MARC 06:02:24:000 F 54 76.77 HALLENCOURT, France
246 3 CLEMANN DENIS 06:02:56:000 E 84 76.73 ST PRIX, FRANCE
247 404 ODIENNE FRANCK 06:03:02:000 C 15 76.73 NANTERRE, FRANCE
248 599 MICHOLT JOHAN 06:04:36:000 E 85 76.62 OTEGEM, BELGIQUE
249 272 BRINTE YVON 06:04:39:100 G 15 76.62 PONTARME, FRANCE
250 360 DAVIES ROBYN 06:04:49:000 D 73 76.61 LLANDOVERY, Royaume-Uni
251 325 KIRK PAUL 06:04:56:000 C 16 76.60 LEEDS, Royaume-Uni
252 438 DUPUIS JEAN LOUIS 06:05:51:000 F 55 76.54 LESTREM, France
253 415 FOUDRIAT J.PIERRE 06:06:56:000 G 16 76.46 AUMALE, FRANCE
254 101 FESNEAU HUBERT 06:07:11:000 F 56 76.45 SAINT OUEN LE PIN, FRANCE
255 413 GABRILLAGUES ANDRE 06:07:11:700 F 57 76.45 PARIS, FRANCE
256 56 LAGASSE BERNARD 06:07:14:000 F 58 76.44 AYWAILLE, BELGIQUE
257 134 DOUVILLE GERARD 06:07:33:000 E 86 76.42 HAUTE EPINE, FRANCE
258 138 RICHARD DANIEL 06:11:19:000 F 59 76.17 DUCLAIR, FRANCE
259 526 ELSE ALAN 06:11:19:600 F 60 76.17 ORPINGTON, Royaume-Uni
261 366 WILLIAMS ALED 06:12:40:000 D 75 76.07 CARMARTHENSHIRE (WALES), Royaume-uni
262 598 TOLLU LIONEL 06:12:42:600 E 87 76.07 CLAVILLE, FRANCE
263 167 BOUTOUT TONY 06:13:07:000 D 76 76.04 VILLENEUVE D'ASCQ, FRANCE
264 529 VAN GOETHEN BERNARD 06:13:09:000 G 17 76.04 HOUTVENNE, BELGIQUE
265 390 HERMANT FRANCK 06:13:27:000 E 88 76.02 ST LEGER LES DOMART, FRANCE
266 548 LELEU GUY 06:13:28:000 E 89 76.02 ESTREES ST DENIS, FRANCE
267 301 SEVESTRE DOMINIQUE 06:14:41:000 D 77 75.94 GUYANCOURT, France
268 604 LAVAIRE GERARD 06:15:38:000 F 61 75.87 BRENELLE, FRANCE
270 297 MASON PETER 06:15:40:000 F 63 75.87 LEEDS, Royaume-Uni
271 489 O NEIL DARREL 06:16:43:000 D 78 75.80 NORTHUMBERLAND, Royaume-uni
272 491 O NEIL LYNDON 06:16:43:600 D 79 75.80 NORTHUMBERLAND, Royaume-uni
273 143 DEHOUPE CLAUDE 06:16:46:000 F 64 75.80 COUDEKERQUE BRANCHE, FRANCE
274 542 KLIS DIDIER 06:16:47:100 D 80 75.79 LOON PLAGE, France
275 315 CARON MICHEL 06:17:52:000 E 90 75.72 ARMENTIERES, FRANCE
276 162 ROBBERECHT MARLEEN 06:18:08:000 A 4 75.70 DENDERMONDE, BELGIQUE
277 425 NEIRYNCK LUC 06:18:09:000 E 91 75.70 DENDERMONDE, BELGIQUE
278 400 SPEDDING CHRISTOPHER MARK 06:18:10:000 C 17 75.70 CARLISLE, Royaume-Uni
279 603 PERKS JOHN 06:18:11:400 G 18 75.70 SUTTON COLDFIELD, Royaume-Uni
280 112 LEITCH JOHN 06:18:12:000 F 65 75.70 BETCHWORTH, SURREY, UK
281 329 CARQUIN J.PIERRE 06:18:16:000 F 66 75.69 GERMAINE, FRANCE
282 527 HORTON CHARLES 06:19:53:000 F 67 75.58 BROMLEY, Royaume-Uni
283 364 BULKLEY RICHARD 06:20:10:000 D 81 75.57 KINGSTON, Royaume-Uni
284 589 LE METAYER ALAIN 06:21:32:100 F 68 75.47 BUSSY ST GEORGES, FRANCE
285 203 LAURENT GERARD 06:21:32:400 F 69 75.47 QUETTEHOU, FRANCE
287 560 PATOUX ALAIN 06:22:18:000 F 70 75.42 ESTREES ST DENIS, FRANCE
288 113 DIEDERICH CHRISTIAN 06:25:35:000 E 93 75.20 VILVOORDE, BELGIQUE
289 233 OMONT ALBERT 06:26:23:000 F 71 75.14 SABRAS, FRANCE
290 499 TRIBAUDEAU LOUIS 06:27:14:000 F 72 75.09 DOULLENS, FRANCE
291 509 WETS DOMINIQUE 06:27:37:000 F 73 75.06 WEZEMBEEK, BELGIQUE
292 314 LORENT RAYMOND 06:27:48:000 E 94 75.05 LIEGE, BELGIQUE
293 555 MERLEVEDE FREDERIC 06:28:35:000 D 82 74.99 BAILLEUL, FRANCE
294 117 BISTER JONATHON 06:28:58:000 D 83 74.97 SUTTON COLFIELD, Royaume-Uni
295 277 DAVIDSON MALCOLM 06:29:27:000 G 19 74.94 LEEDS, Royaume-Uni
296 345 PERKS DAVID 06:30:19:000 G 20 74.88 REDDITCH, Royaume-Uni
297 384 PIERRU HENRI 06:30:31:000 E 95 74.86 LES ULIS, FRANCE
298 596 HAYES DEREK 06:30:40:000 F 74 74.85 SEDBERGH, CUMBRIA, Royaume-Uni
299 536 VANHOUTTE DIDIER 06:32:28:000 D 84 74.73 WERVIK, BELGIQUE
300 336 DESCHEERAEKER RIK 06:32:29:700 E 96 74.73 WAREGEM, BELGIQUE
301 182 SANSO PATRICE 06:32:29:900 E 97 74.73 HEM, FRANCE
302 502 ASHDOWN MICHAEL 06:33:15:000 F 75 74.68 NEW ROMNEY KENT, Royaume-Uni
303 271 MANCHE PHILIPPE 06:33:55:000 E 98 74.63 REIMS, France
304 269 THIBAULT PHILIPPE 06:35:14:000 E 99 74.54 CYSOING, FRANCE
305 520 MEURILLON DOMINIQUE 06:35:14:000 E 100 74.54 CLAMART, FRANCE
306 103 SAUVAGE ANDRE 06:35:15:000 E 101 74.54 WASQUEHAL, FRANCE
307 266 DELAGE FREDERIC 06:35:15:700 C 18 74.54 PEYNIER, France
308 383 MAISON BRICE 06:35:16:000 C 19 74.54 DURY, FRANCE
309 273 MASTIN YVES 06:37:02:000 F 76 74.42 RAIMBEAUCOURT, FRANCE
310 587 MRUGALLA JEAN FRANCOIS 06:38:44:000 E 102 74.31 MERICOURT SOUS LENS, FRANCE
311 263 TAPE DANIEL 06:38:45:200 E 103 74.31 CHELMSFORD, Royaume-Uni
312 163 HINCHCLIFFE BOB 06:38:47:000 G 21 74.30 DONCASTER, Royaume-Uni
314 351 LEESON DEREK 06:39:08:000 F 78 74.28 BELPER DERBY, Royaume-Uni
315 584 BRUCHT CLAUDE 06:40:28:000 E 104 74.19 MARCHE EN FAMENNE, BELGIQUE
316 227 BOUSSEAU JEAN-LUC 06:40:29:000 E 105 74.19 LES HERBIERS, FRANCE
317 317 CLARK BARRY 06:40:29:000 F 79 74.19 BISHUPS STORTFORD HERTS, Royaume-Uni
318 57 DUPONT J.CLAUDE 06:40:30:500 G 22 74.19 EAUCOURT, FRANCE
321 423 KOSINSKI STEPHANE 06:41:36:000 E 108 74.11 FLIXECOURT, FRANCE
322 593 BOGACZYK J.CLAUDE 06:43:30:000 F 80 73.98 ROUVROY, FRANCE
323 218 COLEAUX MICHEL 06:43:45:000 E 109 73.97 ESCAUDAIN, FRANCE
324 258 HUMBERT DENIS 06:43:49:000 E 110 73.96 VORGES, FRANCE
325 554 DUCRET MICHEL 06:44:24:000 F 81 73.92 AMIENS, France
326 311 COPPARD JAMES 06:44:58:000 D 85 73.88 NR HERTFORD HERTS, Royaume-Uni
327 564 MARCELIS ERIC 06:45:20:000 F 82 73.86 KAPELLEN, BELGIQUE
328 27 BOITIER JEAN CLAUDE 06:46:44:000 G 23 73.76 PARIS, FRANCE
329 289 MOISSERON SERGE 06:46:52:000 F 83 73.76 BAR LE DUC, FRANCE
330 575 LECOQ MARCEL 06:48:16:000 F 84 73.66 VERNEUIL SUR SEINE, FRANCE
331 342 DESBROSSE FRANCOIS 06:48:45:000 F 85 73.63 CONGY, FRANCE
332 350 MORGAN ROBERT 06:49:36:000 G 24 73.57 WALSALL (WEST MIDLANDS), Royaume-Uni
333 456 BOULLAND MICHEL 06:49:47:000 F 86 73.56 ABBEVILLE, FRANCE
334 300 SOUTHERN TIMOTHY 06:49:51:000 E 111 73.55 TWICKENHAM, Royaume-Uni
335 386 GAUTHIER BERNARD 06:50:41:000 E 112 73.50 LE BOISLE, FRANCE
336 60 LEDEZ FREDERIC 06:50:44:000 C 20 73.49 HALLENCOURT, France
337 338 PLAIS GUY 06:50:44:800 F 87 73.49 EAUBONNE, FRANCE
338 547 HENIN DENIS 06:50:45:000 E 113 73.49 CHEVRIERES, FRANCE
339 165 MANACH FRANCOIS 06:50:46:000 E 114 73.49 HALLENCOURT, FRANCE
340 497 COLLINSON JEREMY 06:51:55:000 E 115 73.41 GRAYS, France
341 496 LEAMAN DAVID 06:51:56:000 E 116 73.41 ORSETT, France
342 63 SANNIER ANTOINE 06:52:54:000 C 21 73.35 PARIS, France
343 64 SANNIER HENRI 06:52:55:000 F 88 73.35 PARIS, France
344 72 SANNIER PIERRE 06:52:55:000 F 89 73.35 QUESNOY LE MONTANT, FRANCE
345 453 MARECHAL ERIC 06:52:55:800 E 117 73.35 ERONDELLE, France
346 5 BOUTE JEAN-JACQUES 06:52:56:000 F 90 73.34 CERISY BULEUX, FRANCE
347 186 WINTELER ERIC 06:52:56:000 E 118 73.34 ORMES, FRANCE
348 59 GUILBERT ALAIN 06:52:56:100 F 91 73.34 PONT REMY, FRANCE
349 223 COLLIN THIERRY 06:52:57:000 E 119 73.34 ST LO, FRANCE
350 382 DE MARTELAERE PASCAL 06:52:57:600 E 120 73.34 LAMBERSART, FRANCE
351 306 ROUSSEAU YVES 06:52:57:700 F 92 73.34 LOIRON, FRANCE
352 174 CHAPLET DOMINIQUE 06:52:58:000 F 93 73.34 BOISSY LE CHATEL, FRANCE
353 416 AGRARE J. FRANCOIS 06:52:58:000 E 121 73.34 AUMATRE, FRANCE
354 130 RAMSDALE JANE 06:53:00:000 B 4 73.34 LEEDS, Royaume-Uni
355 510 SERVAIS RENE 06:53:00:000 F 94 73.34 LEFOREST, FRANCE
356 252 LAMARCHE ERIC 06:53:00:400 E 122 73.34 AVON, FRANCE
357 296 LYON ALISON 06:53:00:700 A 5 73.34 LEEDS, Royaume-Uni
358 591 MIGNOT MICHEL 06:53:02:100 F 95 73.34 MONTMAIN, FRANCE
359 202 SIONNIERE J.JACQUES 06:53:02:900 G 25 73.34 ELANCOURT, FRANCE
360 590 DANEL ANNIE 06:53:02:900 B 5 73.34 FOUQUIERES LES LENS, FRANCE
361 357 LAMOTTE MICHEL 06:53:03:000 F 96 73.34 GLISY, FRANCE
362 209 GRIGNON RENE 06:53:04:000 F 97 73.34 CONFLANS STE HONORINE, FRANCE
363 259 SISCARO LOUIS 06:53:05:000 G 26 73.33 LAGNY LE SEC, FRANCE
364 363 FINN KELCEY JONATHAN 06:53:09:000 F 98 73.33 NEW ROMNEY, Royaume-Uni
365 160 MUTHER JACQUES 06:53:11:000 G 27 73.33 GOUVERNES, FRANCE
366 436 BRIET DAMIEN 06:53:19:000 C 22 73.32 AMIENS, FRANCE
367 381 PLANQUART PHILIPPE 06:53:21:000 E 123 73.32 ERGNIES, FRANCE
368 208 GUIDEZ JEAN MICHEL 06:53:37:000 F 99 73.30 LAMBERSART, France
369 215 DROUSSENT CLAUDE 06:54:11:000 E 124 73.26 PRE SAINT GERVAIS, FRANCE
370 280 BERTHE ALAIN 06:54:15:500 G 28 73.26 DOULLENS, FRANCE
371 480 HACHIN ARNAUD 06:54:23:000 E 125 73.25 AUTHIE, FRANCE
372 508 DUCHEMIN BERNARD 06:55:34:000 E 126 73.17 VILLERS SUR MAREUIL, FRANCE
373 426 MACKIE IAN 06:55:41:000 F 100 73.16 WADHURST, Royaume-Uni
374 505 HULSBOS BERT 06:58:32:000 F 101 72.96 ALPHEN AAN DEN RIJN, Pays-Bas
375 332 LEONARD ALAIN 07:00:58:000 D 86 72.80 BONCELLES, BELGIQUE
376 330 BENNARDO VINCENZO 07:00:59:500 D 87 72.80 SERAING BONCELLES, BELGIQUE
377 331 LARDAU ALAIN 07:01:00:700 D 88 72.80 BONCELLES, BELGIQUE
378 458 LOUCHART BRUNO 07:08:35:000 E 127 72.28 ABBEVILLE, FRANCE
379 362 DALE CHRIS 07:10:59:000 E 128 72.12 CARLISLE, Royaume-Uni
380 265 HARQUIN ALAIN 07:11:26:000 F 102 72.09 NAMPONT ST MARTIN, FRANCE
381 398 MASON PAUL 07:11:27:000 E 129 72.09 CUMBRIA, Royaume-Uni
382 414 DJELLOULI REDA 07:19:50:000 D 89 71.52 MEUDON LA FORET, FRANCE
383 261 WATERS ANDREW 07:22:26:000 E 130 71.34 LEEDS, Royaume-Uni
384 399 RIDDICK GERALD 07:23:59:000 F 103 71.24 ASPATRIA, Royaume-Uni
385 393 SINGLETON COLIN 07:24:00:200 E 131 71.24 CARLISLE, Royaume-Uni
386 394 JACKSON SAMMY 07:24:01:200 F 104 71.24 CARLISLE, Royaume-Uni
387 558 GEOFFROY LIONEL 07:31:38:000 E 132 70.72 NOISY SUR OISE, FRANCE
388 545 ROBERT NICOLAS 07:31:58:000 D 90 70.70 ST OUEN L''AUMONE, FRANCE
389 270 LESAGE LUDOVIC 07:34:16:000 E 133 70.54 CARRIERES SUR SEINE, FRANCE
390 546 THOREL JOEL 07:34:16:300 F 105 70.54 LONGUEAU, FRANCE
391 512 BLIN MICHEL 07:36:57:000 F 106 70.36 BRUCAMPS, FRANCE
392 396 GLAISTER MICHAEL 07:39:03:000 F 107 70.22 CARLISLE, Royaume-Uni
393 395 BARTON RICHARD 07:39:03:500 C 23 70.22 WHITEHAVEN, Royaume-Uni
394 309 VINEY RICHARD 07:52:28:000 D 91 69.31 BECKENHAM, Royaume-Uni
395 358 JANSEN ANDRIES 07:57:41:000 F 108 68.96 URSEM, Pays-Bas
396 606 QUESTE FRANCOIS 07:58:41:000 C 24 68.89 AIRE SUR LA LYS, FRANCE
397 607 TAHON PASCAL 07:58:42:000 D 92 68.89 GUIGNY, FRANCE
398 372 VAN LOENHOUT MARC 08:01:30:000 D 93 68.70 ESSEN, BELGIQUE
399 369 DE KOONING LUC 08:01:32:900 E 134 68.69 KALMTHOUT, BELGIQUE
400 373 HERRIJGERS DIRK 08:01:33:700 E 135 68.69 KALMTHOUT, BELGIQUE
401 371 VAN THILLO LEO 08:01:34:000 E 136 68.69 KALMTHOUT, BELGIQUE
402 376 DE RYCKE DIRK 08:01:35:000 D 94 68.69 ESSEN, BELGIQUE
403 374 DONKERS HERMAN 08:01:35:700 E 137 68.69 ESSEN, BELGIQUE
404 552 MAJOR HELEN 08:03:37:000 A 6 68.55 LANCASHIRE, Royaume-Uni
405 600 GRENNELL JACK 08:03:38:000 F 109 68.55 KENDAL, Royaume-Uni
406 550 EVERETT BRUCE 08:03:39:000 F 110 68.55 KENDAL CUMBRIA, Royaume-Uni
407 553 BRADSHAW TONY 08:03:40:200 F 111 68.55 KENDAL, CUMBRIA, Royaume-Uni
408 551 MAJOR ANTHONY 08:03:41:000 E 138 68.55 LANCASHIRE, Royaume-Uni
409 595 GRANT IAN 08:03:41:500 G 29 68.55 KENDAL CUMBRIA, Royaume-Uni
410 310 ARCHER STEPHEN 08:03:42:000 E 139 68.55 CANTERBURY, Royaume-Uni
411 559 ROCLAT GUY 08:10:35:000 F 112 68.08 CHAMPAGNE SUR OISE, FRANCE
412 290 RENOU PIERRE YVES 08:21:08:000 F 113 67.37 ST AUBIN DES LANDES, FRANCE
413 403 MORRIS IVAN T. 08:53:40:000 G 30 65.16 CUMBRIA, Royaume-Uni
414 397 CROSBY MARK JOHN 08:54:00:000 D 95 65.14 WHITEHAVEN, Royaume-Uni
415 344 NEWTON JOHN 09:21:47:000 G 31 63.26 LEICS, Royaume-Uni
416 343 ATKINS WALTER 09:21:48:000 G 32 63.25 TAMWORTH, Royaume-Uni

GRANFONDO VOSGES

Report de la Granfondo Vosges

Les organisateurs de la Granfondo Vosges auront tout essayé, notamment via une candidature et une sélection pour devenir événement test. Cependant, le contexte sanitaire actuel aura eu raison de l'édition qui devait se tenir le 16 mai prochain.

Par conséquent, nous vous confirmons le report de la Granfondo Vosges au dimanche 12 septembre 2021.

Toutes les personnes inscrites vont recevoir un mail le 8 avril avec les informations utiles. Via ce mail, vous aurez accès à un formulaire pour nous indiquer si :

-vous êtes disponible le dimanche 12 septembre.
OU
-si vous souhaitez reporter votre inscription pour l'édition de 2022. Attention, vous avez jusqu'au 31 mai pour nous faire part de votre décision.

Sans nouvelle de votre part au-delà de cette date, vous serez inscrits définitivement pour le 12 septembre 2021.

Nous comptons sur notre compréhension.
Prenez soin de vous.
L'équipe d'organisation

TOP